CHINASAT 11 (ZX 11)     
1 39157U 13020A   19258.92119465 -.00000300  00000-0  00000-0 0  9997
2 39157   0.0165 118.5225 0001142 179.3039 126.4148  1.00272494 23429
CZ-3B R/B               
1 39158U 13020B   19258.39427369  .00002770  00000-0  32131-3 0  9999
2 39158  26.8484 358.3168 7110406 107.3731 336.3530  2.51793467 50052